| time (UTC) | temp F | wind direction | speed MPH | gust MPH | rain 1hr in | rain 24hr in | rain mn in | humidity % | barometer mb |
| 20260903164514 | 67 | 271 | 9.0 | 16.0 | 0.00 | 0.37 | 0.37 | 89 | 1004.8 |
| 20260903161515 | 69 | 250 | 7.0 | 17.0 | 0.00 | 0.37 | 0.37 | 88 | 1005.0 |
| 20260903160514 | 69 | 320 | 13.0 | 21.0 | 0.00 | 0.37 | 0.37 | 89 | 1005.1 |
| 20260903155514 | 69 | 242 | 8.0 | 16.0 | 0.00 | 0.37 | 0.37 | 92 | 1005.1 |
| 20260903153514 | 67 | 307 | 9.0 | 15.0 | 0.00 | 0.37 | 0.37 | 94 | 1005.3 |
| 20260903151515 | 66 | 260 | 10.0 | 16.0 | 0.01 | 0.37 | 0.37 | 95 | 1005.2 |
| 20260903150516 | 66 | 240 | 9.0 | 15.0 | 0.01 | 0.37 | 0.37 | 95 | 1005.3 |
| 20260903145514 | 66 | 226 | 9.0 | 16.0 | 0.01 | 0.37 | 0.37 | 96 | 1005.4 |
| 20260903142514 | 64 | 213 | 7.0 | 12.0 | 0.00 | 0.36 | 0.36 | 95 | 1005.6 |
| 20260903134514 | 63 | 192 | 7.0 | 13.0 | 0.00 | 0.36 | 0.36 | 95 | 1006.0 |
| 20260903132516 | 63 | 204 | 7.0 | 13.0 | 0.00 | 0.36 | 0.36 | 95 | 1006.3 |
| 20260903123515 | 63 | 217 | 6.0 | 13.0 | 0.00 | 0.46 | 0.36 | 95 | 1006.7 |
| 20260903122516 | 62 | 201 | 8.0 | 14.0 | 0.00 | 0.46 | 0.36 | 95 | 1006.8 |
| 20260903120515 | 62 | 210 | 9.0 | 13.0 | 0.01 | 0.46 | 0.36 | 95 | 1007.0 |
| 20260903114515 | 62 | 196 | 6.0 | 12.0 | 0.01 | 0.46 | 0.36 | 95 | 1007.2 |
| 20260903113515 | 62 | 182 | 5.0 | 12.0 | 0.01 | 0.46 | 0.36 | 95 | 1007.4 |
| 20260903110515 | 61 | 178 | 2.0 | 7.0 | 0.00 | 0.45 | 0.35 | 95 | 1007.8 |
| 20260903105514 | 61 | 166 | 2.0 | 7.0 | 0.01 | 0.45 | 0.35 | 95 | 1007.9 |
| 20260903104515 | 61 | 179 | 4.0 | 9.0 | 0.01 | 0.45 | 0.35 | 95 | 1008.0 |
| 20260903103514 | 61 | 160 | 2.0 | 6.0 | 0.01 | 0.45 | 0.35 | 95 | 1008.2 |
| 20260903102515 | 61 | 35 | 3.0 | 8.0 | 0.02 | 0.45 | 0.35 | 95 | 1008.3 |
| 20260903100515 | 61 | 173 | 3.0 | 10.0 | 0.03 | 0.45 | 0.35 | 95 | 1008.7 |
| 20260903095515 | 61 | 199 | 4.0 | 10.0 | 0.04 | 0.44 | 0.35 | 95 | 1009.0 |
| 20260903091515 | 60 | 200 | 7.0 | 10.0 | 0.05 | 0.43 | 0.34 | 95 | 1009.6 |
| 20260903090514 | 60 | 214 | 4.0 | 9.0 | 0.03 | 0.42 | 0.32 | 95 | 1009.7 |
| 20260903085515 | 60 | 230 | 5.0 | 9.0 | 0.02 | 0.40 | 0.31 | 95 | 1009.8 |
| 20260903084515 | 60 | 234 | 5.0 | 12.0 | 0.03 | 0.40 | 0.31 | 95 | 1009.9 |
| 20260903083515 | 61 | 221 | 7.0 | 15.0 | 0.03 | 0.40 | 0.31 | 95 | 1010.0 |
| 20260903073516 | 61 | 212 | 7.0 | 10.0 | 0.02 | 0.37 | 0.28 | 95 | 1010.4 |
| 20260903072514 | 61 | 284 | 6.0 | 13.0 | 0.01 | 0.36 | 0.27 | 95 | 1010.5 |
| 20260903070515 | 61 | 192 | 8.0 | 13.0 | 0.00 | 0.35 | 0.26 | 95 | 1010.6 |
| 20260903064515 | 61 | 199 | 7.0 | 12.0 | 0.00 | 0.35 | 0.26 | 95 | 1010.8 |
| 20260903055515 | 60 | 184 | 1.0 | 6.0 | 0.02 | 0.35 | 0.26 | 95 | 1011.2 |
| 20260903053515 | 59 | 69 | 0.0 | 1.0 | 0.09 | 0.35 | 0.26 | 94 | 1011.4 |
| 20260903050515 | 59 | 192 | 0.0 | 0.0 | 0.18 | 0.35 | 0.25 | 94 | 1011.6 |
| 20260903045515 | 59 | 191 | 0.0 | 1.0 | 0.20 | 0.33 | 0.24 | 93 | 1011.7 |
| 20260903041515 | 59 | 245 | 0.0 | 0.0 | 0.12 | 0.21 | 0.12 | 93 | 1012.1 |
| 20260903040515 | 59 | 245 | 0.0 | 3.0 | 0.07 | 0.17 | 0.07 | 93 | 1012.1 |
| 20260903034515 | 59 | 226 | 2.0 | 5.0 | 0.02 | 0.12 | 0.02 | 92 | 1012.4 |
| 20260903033515 | 59 | 225 | 2.0 | 5.0 | 0.01 | 0.10 | 0.01 | 92 | 1012.3 |
| 20260903030515 | 59 | 226 | 2.0 | 5.0 | 0.00 | 0.09 | 0.00 | 92 | 1012.4 |
| 20260903024515 | 59 | 225 | 3.0 | 5.0 | 0.00 | 0.09 | 0.00 | 91 | 1012.7 |
| 20260903023516 | 59 | 248 | 2.0 | 3.0 | 0.00 | 0.09 | 0.00 | 91 | 1012.7 |
| 20260903015515 | 59 | 248 | 2.0 | 3.0 | 0.00 | 0.09 | 0.00 | 91 | 1013.2 |
| 20260903005516 | 59 | 248 | 3.0 | 6.0 | 0.00 | 0.09 | 0.00 | 89 | 1013.3 |
| 20260903004516 | 59 | 238 | 5.0 | 6.0 | 0.00 | 0.09 | 0.00 | 88 | 1013.4 |
| 20260903003515 | 59 | 238 | 3.0 | 8.0 | 0.00 | 0.09 | 0.00 | 88 | 1013.5 |
| 20260903002515 | 59 | 251 | 7.0 | 12.0 | 0.00 | 0.09 | 0.00 | 87 | 1013.5 |
| 20260903000515 | 59 | 263 | 5.0 | 8.0 | 0.00 | 0.09 | 0.00 | 88 | 1013.6 |
| 20260902235515 | 59 | 254 | 5.0 | 12.0 | 0.00 | 0.09 | 0.00 | 87 | 1013.6 |
| 20260902224515 | 59 | 247 | 6.0 | 13.0 | 0.00 | 0.09 | 0.00 | 88 | 1013.7 |
| 20260902221511 | 59 | 240 | 5.0 | 10.0 | 0.00 | 0.09 | 0.00 | 90 | 1013.8 |
| 20260902215515 | 59 | 241 | 7.0 | 13.0 | 0.00 | 0.13 | 0.09 | 91 | 1013.6 |
| 20260902213515 | 60 | 238 | 6.0 | 12.0 | 0.00 | 0.13 | 0.09 | 93 | 1013.5 |
| 20260902212515 | 60 | 243 | 7.0 | 13.0 | 0.00 | 0.13 | 0.09 | 93 | 1013.4 |
| 20260902211516 | 60 | 235 | 6.0 | 13.0 | 0.00 | 0.13 | 0.09 | 93 | 1013.5 |
| 20260902210515 | 60 | 229 | 7.0 | 12.0 | 0.00 | 0.13 | 0.09 | 93 | 1013.5 |
| 20260902203515 | 60 | 232 | 6.0 | 12.0 | 0.00 | 0.13 | 0.09 | 93 | 1013.6 |
| 20260902194516 | 60 | 232 | 9.0 | 14.0 | 0.00 | 0.13 | 0.09 | 92 | 1013.6 |
| 20260902193514 | 60 | 225 | 7.0 | 14.0 | 0.00 | 0.13 | 0.09 | 92 | 1013.6 |
| 20260902191514 | 60 | 239 | 8.0 | 14.0 | 0.00 | 0.13 | 0.09 | 92 | 1013.6 |
| 20260902190514 | 60 | 232 | 7.0 | 14.0 | 0.00 | 0.13 | 0.09 | 92 | 1013.6 |
| 20260902185516 | 60 | 232 | 9.0 | 16.0 | 0.00 | 0.13 | 0.09 | 92 | 1013.6 |
| 20260902184515 | 60 | 249 | 9.0 | 14.0 | 0.00 | 0.13 | 0.09 | 92 | 1013.5 |
| 20260902183513 | 61 | 233 | 7.0 | 13.0 | 0.00 | 0.13 | 0.09 | 92 | 1013.3 |
| 20260902181515 | 61 | 287 | 10.0 | 15.0 | 0.00 | 0.13 | 0.09 | 91 | 1013.2 |
| 20260902171514 | 63 | 232 | 9.0 | 14.0 | 0.00 | 0.13 | 0.09 | 89 | 1013.1 |
| 20260902165515 | 62 | 232 | 7.0 | 16.0 | 0.00 | 0.13 | 0.09 | 90 | 1013.3 |